User: anonymous   Login
Location: Newark
(34.1333°N, 7.9667°W)
Time: 08:20:43
(UTC+00:00)
Language:

Explorer 11/Cluster Stage 4 - Orbit

View from above orbital plane
View from above orbital plane
View from above satellite
View from above satellite

Ground track
Ground track

The orbit data is extracted from the following two-line orbital elements,

1 00107U 61013A   21332.67331774  .00001337  00000-0  15768-3 0  9992
2 00107  28.7917  71.6985 0544788 261.3005  92.5511 14.09449052 40941
Epoch (UTC): 28 November 2021 16:09:34
Eccentricity: 0.0544788
inclination: 28.7917°
perigee height: 467 km
apogee height: 1255 km
right ascension of ascending node: 71.6985°
argument of perigee: 261.3005°
revolutions per day: 14.09449052
mean anomaly at epoch: 92.5511°
orbit number at epoch: 4094

The dashed part of the orbit path shows where the satellite is in the earth's shadow,  

DLR